Regional Weather Roundup
Issued by NWS

Home | Current Version | Previous Version | Text Only | Print | Product List | Glossary On
Versions: 1 2 3 4 5 6 7 8 9 10 11 12 13 14 15 16 17 18 19 20 21 22 23 24 25 26 27 28 29 30 31 32 33 34 35 36 37 38 39 40 41 42 43 44 45 46 47 48 49 50
000
ASUS44 KJAN 021710
RWRMS

MISSISSIPPI HOURLY WEATHER ROUNDUP
NATIONAL WEATHER SERVICE JACKSON MS
1200 PM CDT WED SEP 02 2015

NOTE: "FAIR: INDICATES FEW OR NO CLOUDS BELOW 12,000 FEET WITH NO
SIGNIFICANT WEATHER AND/OR OBSTRUCTIONS TO VISIBILITY.

MSZ001>002-007>008-010>013-018>021-025>028-034>036-021800-
NORTHWEST MISSISSIPPI

CITY           SKY/WX    TMP DP  RH WIND       PRES   REMARKS
CLARKSDALE     FAIR      82  75  78 CALM      30.10F
CLEVELAND      FAIR      82  75  81 CALM      30.08F
GREENWOOD      CLOUDY    85  71  63 N3        30.08F HX  90
GREENVILLE     CLOUDY    83  74  74 NE3       30.08F
OXFORD         FAIR      81  70  69 NE5       30.12F
$$

MSZ003>006-009-014>017-022>024-029>033-037>039-021800-
NORTHEAST MISSISSIPPI

CITY           SKY/WX    TMP DP  RH WIND       PRES   REMARKS
COLUMBUS AFB   CLOUDY    87  72  62 VRB3      30.07F HX  93
CORINTH        FAIR      84  70  61 CALM      30.09F
GOLDN TRIANGLE MOSUNNY   91  72  52 N5        30.08F HX  98
STARKVILLE     FAIR      86  72  62 N3        30.08F HX  92
TUPELO         CLOUDY    85  71  63 E5        30.09F HX  90
$$

MSZ040-058-021800-
CENTRAL MISSISSIPPI

CITY           SKY/WX    TMP DP  RH WIND       PRES   REMARKS
JACKSON INTL   CLOUDY    83  71  67 CALM      30.09S
JACKSON HAWKNS CLOUDY    83  71  67 NW5       30.09S
MERIDIAN KEY   CLOUDY    87  70  56 CALM      30.07F HX  92
MERIDIAN NAS   PTSUNNY   88  72  58 SE5       30.08S HX  94
VICKSBURG      CLOUDY    85  72  65 N6        30.07F HX  91
$$

MSZ059>079-021800-
SOUTH MISSISSIPPI

CITY           SKY/WX    TMP DP  RH WIND       PRES   REMARKS
BROOKHAVEN     FAIR      84  72  65 E3        30.11S
HATTIESBURG    MOSUNNY   91  69  48 SE8       30.08S HX  96
MCCOMB         CLOUDY    84  72  67 E3        30.09S
NATCHEZ        PTSUNNY   82  72  69 N5        30.09F
PINE BELT      MOSUNNY   91  61  35 CALM      30.10S HX  91
$$

MSZ080>082-021800-
COASTAL MISSISSIPPI

CITY           SKY/WX    TMP DP  RH WIND       PRES   REMARKS
BAY ST LOUIS   MOSUNNY   88  64  45 E6        30.08S
BILOXI         PTSUNNY   90  72  54 S7        30.07S HX  97
PASCAGOULA     MOSUNNY   90  67  46 S5        30.07F HX  93
GULFPORT       PTSUNNY   88  71  57 S8        30.07S HX  94
$$


USA.gov is the U.S. government's official web portal to all federal, state and local government web resources and services.